Flag for U.S.A. Weather past 2 weeks in Winamac, Indiana, U.S.A.

Now
33 °F

Overcast.


Feels Like: 24 °F
Forecast: 30 / 37 °F
Wind: 12 mph from Northwest

Location: Porter County Municipal Airport

Current Time: Jan 29, 2015 at 6:28:11 PM

Latest Report: Jan 29, 2015 at 5:56 PM


Visibility: 9 mi

Pressure: 30.10 "Hg

Humidity: 78%

Dew point: 27 °F

Location of WinamacLocation

Historic Weather in Winamac — Graph

°F

Winamac temperature yesterday

Maximum temperature yesterday: 32 °F (at 2:56 PM)
Minimum temperature yesterday: 15 °F (at 5:56 AM)
Average temperature yesterday: 25 °F

Past Weeks' High & Low Weather Summary

 TemperatureHumidityPressure
High42 °F (Jan 24, 2:56 PM)100% (Jan 19, 9:56 AM)30.46 "Hg (Jan 19, 9:56 AM)
Low6 °F (Jan 15, 2:56 AM)36% (Jan 27, 3:56 PM)29.65 "Hg (Jan 24, 2:56 PM)
Average29 °F81%30.02 "Hg
* Reported Jan 14 4:56 PM — Jan 29 4:56 PM, Winamac, Weather by CustomWeather, © 2014

Note: Actual official high and low records may vary slightly from our data, if they occured in-between our weather recording intervals... More about our weather records

Advertising

Winamac weather history for previous 24 hours

 ConditionsComfort  
Time TempWeatherWind HumidityBarometerVisibility
4:56 PM
Jan 29
33 °FOvercast.13 mph78%30.06 "Hg7 mi
3:56 PM33 °FOvercast.18 mph75%30.01 "Hg8 mi
2:56 PM32 °FIce fog.13 mph85%29.97 "Hg5 mi
1:56 PM33 °FOvercast.17 mph75%29.93 "Hg7 mi
12:56 PM33 °FOvercast.18 mph78%29.90 "Hg5 mi
11:56 AM33 °FOvercast.16 mph82%29.88 "Hg5 mi
10:56 AM34 °FOvercast.16 mph79%29.82 "Hg7 mi
9:56 AM36 °FOvercast.10 mph75%29.78 "Hg10 mi
8:56 AM35 °FMostly cloudy.7 mph78%29.75 "Hg10 mi
7:56 AM33 °FOvercast.No wind75%29.73 "Hg10 mi
6:56 AM33 °FPassing clouds.6 mph72%29.72 "Hg10 mi
5:56 AM34 °FOvercast.7 mph70%29.73 "Hg10 mi
4:56 AM34 °FOvercast.9 mph67%29.76 "Hg10 mi
3:56 AM34 °FOvercast.12 mph64%29.79 "Hg10 mi
2:56 AM33 °FPassing clouds.12 mph66%29.82 "Hg10 mi
1:56 AM33 °FPassing clouds.14 mph63%29.83 "Hg10 mi
12:56 AM33 °FLight rain. Overcast.15 mph63%29.89 "Hg10 mi
11:56 PM
Jan 28
32 °FMostly cloudy.14 mph64%29.95 "Hg10 mi
10:56 PM32 °FClear.10 mph61%29.98 "Hg10 mi
9:56 PM31 °FClear.18 mph64%29.99 "Hg10 mi
8:56 PM31 °FClear.14 mph64%30.02 "Hg10 mi
7:56 PM30 °FClear.15 mph66%30.06 "Hg10 mi
6:56 PM30 °FClear.14 mph66%30.09 "Hg10 mi
Weather by CustomWeather, © 2014

See weather overviewHow to use our weather pages